| time (UTC) | temp C | wind direction | speed KPH | gust KPH | rain 1hr cm | rain 24hr cm | rain mn cm | humidity % | barometer mb |
| 20260510061210 | 11 | 111 | 0.0 | 0.0 | 0.00 | 0.00 | 0.00 | 94 | 1013.3 |
| 20260510060706 | 11 | 111 | 0.0 | 0.0 | 0.00 | 0.00 | 0.00 | 94 | 1013.4 |
| 20260510060203 | 11 | 111 | 0.0 | 0.0 | 0.00 | 0.00 | 0.00 | 94 | 1013.2 |
| 20260510055659 | 11 | 111 | 0.0 | 0.0 | 0.00 | 0.00 | 0.00 | 94 | 1013.3 |
| 20260510055157 | 11 | 111 | 0.0 | 0.0 | 0.00 | 0.00 | 0.00 | 94 | 1013.5 |
| 20260510054653 | 11 | 111 | 0.0 | 0.0 | 0.00 | 0.00 | 0.00 | 94 | 1013.4 |
| 20260510054149 | 11 | 111 | 0.0 | 0.0 | 0.00 | 0.00 | 0.00 | 94 | 1013.5 |
| 20260510053648 | 11 | 111 | 0.0 | 0.0 | 0.00 | 0.00 | 0.00 | 94 | 1013.5 |
| 20260510053145 | 11 | 111 | 0.0 | 0.0 | 0.00 | 0.00 | 0.00 | 95 | 1013.3 |
| 20260510052640 | 11 | 111 | 0.0 | 0.0 | 0.00 | 0.00 | 0.00 | 95 | 1013.4 |
| 20260510052137 | 11 | 111 | 0.0 | 0.0 | 0.00 | 0.00 | 0.00 | 95 | 1013.6 |
| 20260510051633 | 11 | 111 | 0.0 | 0.0 | 0.00 | 0.00 | 0.00 | 95 | 1013.5 |
| 20260510051129 | 11 | 111 | 0.0 | 0.0 | 0.00 | 0.00 | 0.00 | 94 | 1013.7 |
| 20260510050627 | 11 | 111 | 0.0 | 0.0 | 0.00 | 0.00 | 0.00 | 94 | 1013.5 |
| 20260510050124 | 11 | 111 | 0.0 | 0.0 | 0.00 | 0.03 | 0.03 | 94 | 1013.5 |
| 20260510045621 | 11 | 111 | 0.0 | 0.0 | 0.00 | 0.03 | 0.03 | 94 | 1013.6 |
| 20260510045117 | 11 | 111 | 0.0 | 0.0 | 0.00 | 0.03 | 0.03 | 95 | 1013.4 |
| 20260510044613 | 11 | 111 | 0.0 | 0.0 | 0.00 | 0.03 | 0.03 | 95 | 1013.2 |
| 20260510044111 | 11 | 111 | 0.0 | 0.0 | 0.00 | 0.03 | 0.03 | 94 | 1013.2 |
| 20260510043606 | 11 | 111 | 0.0 | 0.0 | 0.00 | 0.03 | 0.03 | 94 | 1013.1 |
| 20260510043103 | 11 | 112 | 0.0 | 0.0 | 0.00 | 0.03 | 0.03 | 94 | 1012.9 |
| 20260510042601 | 11 | 112 | 0.0 | 0.0 | 0.00 | 0.03 | 0.03 | 94 | 1012.9 |
| 20260510042056 | 11 | 111 | 0.0 | 0.0 | 0.00 | 0.03 | 0.03 | 93 | 1013.0 |
| 20260510041554 | 11 | 110 | 0.0 | 0.0 | 0.00 | 0.03 | 0.03 | 93 | 1012.9 |
| 20260510041051 | 11 | 110 | 0.0 | 0.0 | 0.00 | 0.03 | 0.03 | 93 | 1012.6 |
| 20260510040548 | 12 | 110 | 0.0 | 0.0 | 0.00 | 0.03 | 0.03 | 93 | 1012.7 |
| 20260510040044 | 12 | 110 | 0.0 | 0.0 | 0.00 | 0.03 | 0.03 | 92 | 1013.0 |
| 20260510035540 | 12 | 110 | 0.0 | 0.0 | 0.00 | 0.03 | 0.03 | 91 | 1012.8 |
| 20260510035040 | 12 | 110 | 0.0 | 0.0 | 0.00 | 0.03 | 0.03 | 91 | 1012.6 |
| 20260510034538 | 12 | 110 | 0.0 | 0.0 | 0.00 | 0.03 | 0.03 | 91 | 1012.6 |
| 20260510034035 | 12 | 110 | 0.0 | 0.0 | 0.00 | 0.03 | 0.03 | 91 | 1012.4 |
| 20260510033530 | 12 | 110 | 0.0 | 0.0 | 0.00 | 0.03 | 0.03 | 90 | 1012.3 |
| 20260510033029 | 12 | 110 | 0.0 | 0.0 | 0.00 | 0.03 | 0.03 | 90 | 1012.3 |
| 20260510032525 | 12 | 110 | 0.0 | 1.6 | 0.00 | 0.03 | 0.03 | 89 | 1012.0 |
| 20260510032020 | 12 | 109 | 1.6 | 1.6 | 0.00 | 0.03 | 0.03 | 89 | 1012.2 |
| 20260510031516 | 12 | 110 | 1.6 | 1.6 | 0.00 | 0.03 | 0.03 | 88 | 1012.0 |
| 20260510031012 | 12 | 183 | 0.0 | 0.0 | 0.00 | 0.03 | 0.03 | 89 | 1012.0 |
| 20260510030508 | 13 | 184 | 0.0 | 0.0 | 0.00 | 0.03 | 0.03 | 89 | 1011.8 |
| 20260510030005 | 13 | 184 | 0.0 | 0.0 | 0.00 | 0.03 | 0.03 | 89 | 1011.8 |
| 20260510025502 | 13 | 184 | 0.0 | 0.0 | 0.00 | 0.03 | 0.03 | 88 | 1011.7 |
| 20260510025000 | 13 | 184 | 0.0 | 0.0 | 0.00 | 0.03 | 0.03 | 87 | 1011.8 |
| 20260510024456 | 13 | 184 | 0.0 | 0.0 | 0.00 | 0.03 | 0.03 | 87 | 1012.0 |
| 20260510023952 | 13 | 184 | 0.0 | 0.0 | 0.00 | 0.03 | 0.03 | 87 | 1011.7 |
| 20260510023448 | 13 | 184 | 0.0 | 0.0 | 0.00 | 0.03 | 0.03 | 87 | 1011.7 |
| 20260510022945 | 13 | 184 | 0.0 | 0.0 | 0.00 | 0.03 | 0.03 | 85 | 1011.3 |
| 20260510022444 | 13 | 184 | 0.0 | 0.0 | 0.00 | 0.03 | 0.03 | 85 | 1011.3 |
| 20260510021944 | 14 | 184 | 0.0 | 0.0 | 0.00 | 0.03 | 0.03 | 84 | 1011.3 |
| 20260510021442 | 14 | 184 | 0.0 | 0.0 | 0.00 | 0.03 | 0.03 | 83 | 1011.1 |
| 20260510020939 | 14 | 184 | 0.0 | 0.0 | 0.00 | 0.03 | 0.03 | 82 | 1011.0 |
| 20260510020438 | 14 | 184 | 0.0 | 0.0 | 0.00 | 0.03 | 0.03 | 82 | 1010.8 |
| 20260510015934 | 14 | 185 | 0.0 | 0.0 | 0.00 | 0.03 | 0.03 | 82 | 1010.8 |
| 20260510015431 | 15 | 185 | 0.0 | 0.0 | 0.00 | 0.03 | 0.03 | 82 | 1010.7 |
| 20260510014926 | 15 | 185 | 0.0 | 0.0 | 0.00 | 0.03 | 0.03 | 79 | 1010.6 |
| 20260510014424 | 15 | 185 | 0.0 | 0.0 | 0.00 | 0.03 | 0.03 | 80 | 1010.7 |
| 20260510013920 | 15 | 185 | 0.0 | 0.0 | 0.00 | 0.03 | 0.03 | 78 | 1010.4 |
| 20260510013415 | 15 | 185 | 0.0 | 0.0 | 0.00 | 0.03 | 0.03 | 78 | 1010.6 |
| 20260510012910 | 16 | 185 | 0.0 | 0.0 | 0.00 | 0.03 | 0.03 | 77 | 1010.5 |
| 20260510012405 | 16 | 185 | 0.0 | 0.0 | 0.00 | 0.03 | 0.03 | 77 | 1010.4 |
| 20260510011900 | 16 | 186 | 0.0 | 0.0 | 0.00 | 0.03 | 0.03 | 72 | 1010.4 |
| 20260510011355 | 16 | 186 | 0.0 | 0.0 | 0.00 | 0.03 | 0.03 | 72 | 1010.3 |
| 20260510010852 | 17 | 186 | 0.0 | 0.0 | 0.00 | 0.03 | 0.03 | 71 | 1010.1 |
| 20260510010350 | 17 | 186 | 0.0 | 0.0 | 0.00 | 0.03 | 0.03 | 67 | 1010.1 |
| 20260510005846 | 17 | 186 | 0.0 | 0.0 | 0.00 | 0.03 | 0.03 | 67 | 1009.9 |
| 20260510005342 | 18 | 186 | 0.0 | 0.0 | 0.00 | 0.03 | 0.03 | 61 | 1009.7 |
| 20260510004840 | 19 | 186 | 0.0 | 0.0 | 0.00 | 0.03 | 0.03 | 54 | 1009.6 |
| 20260510004337 | 20 | 185 | 0.0 | 0.0 | 0.00 | 0.03 | 0.03 | 52 | 1009.7 |
| 20260510003835 | 20 | 185 | 0.0 | 0.0 | 0.00 | 0.03 | 0.03 | 50 | 1009.6 |
| 20260510003332 | 20 | 185 | 0.0 | 0.0 | 0.00 | 0.03 | 0.03 | 48 | 1009.8 |
| 20260510002830 | 21 | 185 | 0.0 | 0.0 | 0.00 | 0.03 | 0.03 | 49 | 1009.7 |
| 20260510002328 | 21 | 186 | 0.0 | 0.0 | 0.00 | 0.03 | 0.03 | 49 | 1009.7 |
| 20260510001824 | 21 | 185 | 0.0 | 0.0 | 0.00 | 0.03 | 0.03 | 48 | 1009.4 |
| 20260510001323 | 22 | 185 | 1.6 | 1.6 | 0.00 | 0.03 | 0.03 | 43 | 1009.7 |
| 20260510000818 | 23 | 185 | 0.0 | 0.0 | 0.00 | 0.03 | 0.03 | 47 | 1009.7 |
| 20260510000318 | 23 | 185 | 0.0 | 0.0 | 0.00 | 0.03 | 0.03 | 45 | 1009.6 |
| 20260509235813 | 23 | 185 | 0.0 | 0.0 | 0.00 | 0.03 | 0.03 | 41 | 1009.8 |
| 20260509235309 | 23 | 185 | 0.0 | 0.0 | 0.00 | 0.03 | 0.03 | 44 | 1009.8 |
| 20260509234805 | 25 | 185 | 0.0 | 3.2 | 0.00 | 0.03 | 0.03 | 42 | 1009.8 |
| 20260509234302 | 25 | 223 | 1.6 | 1.6 | 0.00 | 0.03 | 0.03 | 38 | 1009.7 |
| 20260509233800 | 26 | 223 | 0.0 | 0.0 | 0.00 | 0.03 | 0.03 | 39 | 1009.7 |
| 20260509233257 | 26 | 224 | 0.0 | 1.6 | 0.00 | 0.03 | 0.03 | 35 | 1009.8 |
| 20260509232753 | 26 | 221 | 1.6 | 1.6 | 0.00 | 0.03 | 0.03 | 33 | 1009.7 |
| 20260509232251 | 27 | 358 | 0.0 | 1.6 | 0.00 | 0.03 | 0.03 | 36 | 1009.6 |
| 20260509231747 | 27 | 355 | 1.6 | 1.6 | 0.00 | 0.03 | 0.03 | 38 | 1009.7 |
| 20260509231244 | 27 | 343 | 3.2 | 3.2 | 0.00 | 0.03 | 0.03 | 32 | 1009.8 |
| 20260509230742 | 28 | 344 | 3.2 | 4.8 | 0.00 | 0.03 | 0.03 | 27 | 1009.9 |
| 20260509230238 | 27 | 280 | 0.0 | 0.0 | 0.00 | 0.03 | 0.03 | 22 | 1009.9 |
| 20260509225733 | 28 | 280 | 1.6 | 3.2 | 0.00 | 0.03 | 0.03 | 26 | 1009.7 |
| 20260509225230 | 27 | 255 | 1.6 | 3.2 | 0.00 | 0.03 | 0.03 | 22 | 1009.9 |
| 20260509224725 | 27 | 179 | 3.2 | 3.2 | 0.00 | 0.03 | 0.03 | 22 | 1009.9 |
| 20260509224223 | 27 | 157 | 3.2 | 6.4 | 0.00 | 0.03 | 0.03 | 22 | 1009.8 |
| 20260509223720 | 27 | 190 | 3.2 | 4.8 | 0.00 | 0.03 | 0.03 | 22 | 1009.9 |
| 20260509223217 | 27 | 173 | 3.2 | 4.8 | 0.00 | 0.03 | 0.03 | 23 | 1009.8 |
| 20260509222714 | 27 | 140 | 0.0 | 1.6 | 0.00 | 0.03 | 0.03 | 22 | 1009.7 |
| 20260509222209 | 27 | 183 | 0.0 | 3.2 | 0.00 | 0.03 | 0.03 | 27 | 1009.7 |
| 20260509221705 | 27 | 158 | 0.0 | 4.8 | 0.00 | 0.03 | 0.03 | 29 | 1009.7 |
| 20260509221201 | 27 | 20 | 4.8 | 4.8 | 0.00 | 0.03 | 0.03 | 27 | 1009.7 |
| 20260509220657 | 27 | 110 | 3.2 | 4.8 | 0.00 | 0.03 | 0.03 | 22 | 1009.7 |
| 20260509220154 | 27 | 39 | 1.6 | 4.8 | 0.00 | 0.03 | 0.03 | 22 | 1009.7 |
| 20260509215649 | 27 | 46 | 1.6 | 6.4 | 0.00 | 0.03 | 0.03 | 24 | 1009.4 |
| 20260509215147 | 27 | 277 | 1.6 | 4.8 | 0.00 | 0.03 | 0.03 | 27 | 1009.6 |
| 20260509214643 | 27 | 18 | 0.0 | 3.2 | 0.00 | 0.03 | 0.03 | 25 | 1009.8 |
| 20260509214140 | 27 | 41 | 1.6 | 6.4 | 0.00 | 0.03 | 0.03 | 25 | 1009.8 |
| 20260509213637 | 27 | 2 | 6.4 | 9.7 | 0.00 | 0.03 | 0.03 | 23 | 1009.9 |
| 20260509213133 | 27 | 25 | 6.4 | 6.4 | 0.00 | 0.03 | 0.03 | 24 | 1009.8 |
| 20260509212631 | 27 | 115 | 0.0 | 3.2 | 0.00 | 0.03 | 0.03 | 24 | 1009.9 |
| 20260509212127 | 27 | 71 | 3.2 | 6.4 | 0.00 | 0.03 | 0.03 | 28 | 1009.9 |
| 20260509211623 | 27 | 27 | 4.8 | 6.4 | 0.00 | 0.03 | 0.03 | 26 | 1009.9 |
| 20260509211120 | 27 | 161 | 0.0 | 6.4 | 0.00 | 0.03 | 0.03 | 30 | 1010.0 |
| 20260509210617 | 27 | 83 | 3.2 | 6.4 | 0.00 | 0.03 | 0.03 | 29 | 1010.0 |
| 20260509210114 | 27 | 71 | 3.2 | 6.4 | 0.00 | 0.03 | 0.03 | 26 | 1010.1 |
| 20260509205608 | 27 | 77 | 1.6 | 4.8 | 0.00 | 0.03 | 0.03 | 30 | 1010.2 |
| 20260509205103 | 27 | 35 | 3.2 | 9.7 | 0.00 | 0.03 | 0.03 | 27 | 1010.1 |
| 20260509204559 | 28 | 258 | 1.6 | 6.4 | 0.00 | 0.03 | 0.03 | 30 | 1010.4 |
| 20260509204056 | 27 | 240 | 0.0 | 1.6 | 0.00 | 0.03 | 0.03 | 28 | 1010.4 |
| 20260509203552 | 27 | 149 | 0.0 | 1.6 | 0.00 | 0.03 | 0.03 | 25 | 1010.4 |
| 20260509203051 | 27 | 56 | 1.6 | 3.2 | 0.00 | 0.03 | 0.03 | 29 | 1010.6 |
| 20260509202550 | 27 | 160 | 6.4 | 9.7 | 0.00 | 0.03 | 0.03 | 32 | 1010.5 |
| 20260509202046 | 26 | 112 | 1.6 | 4.8 | 0.00 | 0.03 | 0.03 | 27 | 1010.6 |
| 20260509201541 | 27 | 172 | 6.4 | 6.4 | 0.00 | 0.03 | 0.03 | 33 | 1010.4 |
| 20260509201040 | 27 | 189 | 6.4 | 9.7 | 0.00 | 0.03 | 0.03 | 30 | 1010.4 |
| 20260509200539 | 27 | 242 | 3.2 | 4.8 | 0.00 | 0.03 | 0.03 | 26 | 1010.6 |
| 20260509200036 | 27 | 331 | 4.8 | 6.4 | 0.00 | 0.03 | 0.03 | 29 | 1010.7 |
| 20260509195532 | 27 | 47 | 4.8 | 11.3 | 0.00 | 0.03 | 0.03 | 26 | 1010.7 |
| 20260509195032 | 27 | 162 | 1.6 | 6.4 | 0.00 | 0.03 | 0.03 | 25 | 1010.7 |
| 20260509194526 | 27 | 167 | 3.2 | 6.4 | 0.00 | 0.03 | 0.03 | 30 | 1010.6 |
| 20260509194024 | 27 | 92 | 1.6 | 1.6 | 0.00 | 0.03 | 0.03 | 25 | 1010.6 |
| 20260509193524 | 27 | 130 | 4.8 | 9.7 | 0.00 | 0.03 | 0.03 | 28 | 1011.0 |
| 20260509193022 | 27 | 187 | 0.0 | 3.2 | 0.00 | 0.03 | 0.03 | 23 | 1010.8 |
| 20260509192518 | 27 | 227 | 3.2 | 3.2 | 0.00 | 0.03 | 0.03 | 29 | 1010.9 |
| 20260509192013 | 26 | 331 | 0.0 | 4.8 | 0.00 | 0.03 | 0.03 | 23 | 1010.9 |
| 20260509191508 | 26 | 343 | 3.2 | 6.4 | 0.00 | 0.03 | 0.03 | 26 | 1011.1 |
| 20260509191004 | 26 | 82 | 4.8 | 6.4 | 0.00 | 0.03 | 0.03 | 27 | 1010.9 |
| 20260509190501 | 26 | 137 | 1.6 | 4.8 | 0.00 | 0.03 | 0.03 | 28 | 1011.0 |
| 20260509185959 | 26 | 140 | 3.2 | 9.7 | 0.00 | 0.03 | 0.03 | 35 | 1011.2 |
| 20260509185455 | 26 | 280 | 3.2 | 4.8 | 0.00 | 0.03 | 0.03 | 31 | 1011.0 |
| 20260509184952 | 26 | 230 | 4.8 | 9.7 | 0.00 | 0.03 | 0.03 | 26 | 1011.1 |
| 20260509184450 | 26 | 91 | 4.8 | 4.8 | 0.00 | 0.03 | 0.03 | 33 | 1011.1 |
| 20260509183946 | 26 | 151 | 1.6 | 4.8 | 0.00 | 0.03 | 0.03 | 32 | 1011.1 |
| 20260509183441 | 26 | 198 | 1.6 | 3.2 | 0.00 | 0.03 | 0.03 | 29 | 1011.2 |
| 20260509182938 | 26 | 147 | 4.8 | 12.9 | 0.00 | 0.03 | 0.03 | 35 | 1011.2 |
| 20260509182434 | 26 | 135 | 4.8 | 9.7 | 0.00 | 0.03 | 0.03 | 36 | 1011.1 |
| 20260509181931 | 26 | 145 | 6.4 | 6.4 | 0.00 | 0.03 | 0.03 | 36 | 1011.2 |
| 20260509181429 | 25 | 121 | 3.2 | 3.2 | 0.00 | 0.03 | 0.03 | 31 | 1011.1 |
| 20260509180926 | 26 | 160 | 9.7 | 12.9 | 0.00 | 0.03 | 0.03 | 36 | 1011.2 |
| 20260509180421 | 26 | 160 | 4.8 | 6.4 | 0.00 | 0.03 | 0.03 | 33 | 1011.2 |
| 20260509175919 | 25 | 91 | 1.6 | 1.6 | 0.00 | 0.03 | 0.03 | 32 | 1011.3 |
| 20260509175415 | 26 | 287 | 6.4 | 9.7 | 0.00 | 0.03 | 0.03 | 33 | 1011.3 |
| 20260509174911 | 25 | 124 | 0.0 | 3.2 | 0.00 | 0.03 | 0.03 | 37 | 1011.0 |
| 20260509174408 | 25 | 104 | 6.4 | 9.7 | 0.00 | 0.03 | 0.03 | 34 | 1011.1 |
| 20260509173904 | 25 | 152 | 3.2 | 4.8 | 0.00 | 0.03 | 0.03 | 38 | 1010.9 |
| 20260509173403 | 25 | 244 | 6.4 | 6.4 | 0.00 | 0.03 | 0.03 | 31 | 1011.1 |
| 20260509172900 | 25 | 203 | 1.6 | 1.6 | 0.00 | 0.03 | 0.03 | 35 | 1011.2 |
| 20260509172357 | 25 | 164 | 8.0 | 9.7 | 0.00 | 0.03 | 0.03 | 38 | 1011.3 |
| 20260509171852 | 25 | 195 | 3.2 | 4.8 | 0.00 | 0.03 | 0.03 | 31 | 1011.4 |
| 20260509171349 | 25 | 215 | 1.6 | 1.6 | 0.00 | 0.03 | 0.03 | 43 | 1011.4 |
| 20260509170846 | 25 | 192 | 0.0 | 3.2 | 0.00 | 0.03 | 0.03 | 37 | 1011.3 |
| 20260509170342 | 25 | 145 | 3.2 | 3.2 | 0.00 | 0.03 | 0.03 | 37 | 1011.6 |
| 20260509165842 | 25 | 155 | 1.6 | 3.2 | 0.00 | 0.03 | 0.03 | 34 | 1011.5 |
| 20260509165336 | 24 | 212 | 0.0 | 3.2 | 0.00 | 0.03 | 0.03 | 44 | 1011.6 |
| 20260509164833 | 25 | 236 | 3.2 | 4.8 | 0.00 | 0.03 | 0.03 | 46 | 1011.7 |
| 20260509164329 | 24 | 198 | 0.0 | 3.2 | 0.00 | 0.03 | 0.03 | 54 | 1011.7 |
| 20260509163825 | 23 | 98 | 3.2 | 3.2 | 0.00 | 0.03 | 0.03 | 47 | 1011.5 |
| 20260509163323 | 24 | 337 | 4.8 | 9.7 | 0.00 | 0.03 | 0.03 | 48 | 1011.7 |
| 20260509162822 | 23 | 70 | 1.6 | 3.2 | 0.00 | 0.03 | 0.03 | 49 | 1011.6 |
| 20260509162320 | 24 | 217 | 1.6 | 4.8 | 0.00 | 0.03 | 0.03 | 52 | 1011.7 |
| 20260509161817 | 23 | 153 | 1.6 | 3.2 | 0.00 | 0.03 | 0.03 | 56 | 1011.7 |
| 20260509161313 | 23 | 152 | 3.2 | 3.2 | 0.00 | 0.03 | 0.03 | 60 | 1011.6 |
| 20260509160808 | 23 | 238 | 1.6 | 6.4 | 0.00 | 0.03 | 0.03 | 58 | 1011.8 |
| 20260509160305 | 22 | 168 | 1.6 | 1.6 | 0.00 | 0.03 | 0.03 | 59 | 1011.7 |
| 20260509155800 | 22 | 216 | 1.6 | 4.8 | 0.00 | 0.03 | 0.03 | 65 | 1011.7 |
| 20260509155257 | 22 | 194 | 1.6 | 3.2 | 0.00 | 0.03 | 0.03 | 65 | 1011.7 |
| 20260509154753 | 22 | 251 | 3.2 | 4.8 | 0.00 | 0.03 | 0.03 | 66 | 1011.7 |
| 20260509154250 | 22 | 138 | 1.6 | 3.2 | 0.00 | 0.03 | 0.03 | 68 | 1011.6 |
| 20260509153747 | 22 | 141 | 3.2 | 3.2 | 0.00 | 0.03 | 0.03 | 65 | 1011.6 |
| 20260509153243 | 21 | 244 | 1.6 | 4.8 | 0.00 | 0.03 | 0.03 | 66 | 1011.5 |
| 20260509152740 | 21 | 276 | 4.8 | 6.4 | 0.00 | 0.03 | 0.03 | 68 | 1011.5 |
| 20260509152236 | 21 | 250 | 3.2 | 4.8 | 0.00 | 0.03 | 0.03 | 72 | 1011.6 |
| 20260509151733 | 21 | 266 | 3.2 | 4.8 | 0.00 | 0.03 | 0.03 | 71 | 1011.7 |
| 20260509151230 | 21 | 212 | 3.2 | 3.2 | 0.00 | 0.03 | 0.03 | 69 | 1011.4 |
| 20260509150728 | 21 | 245 | 3.2 | 6.4 | 0.00 | 0.03 | 0.03 | 71 | 1011.6 |
| 20260509150226 | 21 | 251 | 3.2 | 3.2 | 0.00 | 0.03 | 0.03 | 71 | 1011.4 |
| 20260509145723 | 20 | 170 | 0.0 | 1.6 | 0.00 | 0.03 | 0.03 | 74 | 1011.5 |
| 20260509145223 | 20 | 256 | 1.6 | 3.2 | 0.00 | 0.03 | 0.03 | 75 | 1011.7 |
| 20260509144719 | 20 | 270 | 3.2 | 4.8 | 0.00 | 0.03 | 0.03 | 75 | 1011.6 |
| 20260509144216 | 20 | 314 | 3.2 | 4.8 | 0.00 | 0.03 | 0.03 | 75 | 1011.6 |
| 20260509143714 | 20 | 195 | 0.0 | 4.8 | 0.00 | 0.03 | 0.03 | 78 | 1011.7 |
| 20260509143211 | 19 | 295 | 1.6 | 4.8 | 0.00 | 0.03 | 0.03 | 78 | 1011.5 |
| 20260509142706 | 19 | 279 | 3.2 | 3.2 | 0.00 | 0.03 | 0.03 | 79 | 1011.4 |
| 20260509142203 | 18 | 216 | 0.0 | 1.6 | 0.00 | 0.03 | 0.03 | 83 | 1011.5 |
| 20260509141659 | 18 | 217 | 0.0 | 0.0 | 0.00 | 0.03 | 0.03 | 80 | 1011.6 |
| 20260509141156 | 17 | 216 | 0.0 | 1.6 | 0.00 | 0.03 | 0.03 | 83 | 1011.6 |
| 20260509140652 | 16 | 217 | 0.0 | 0.0 | 0.00 | 0.03 | 0.03 | 86 | 1011.6 |
| 20260509140150 | 16 | 217 | 1.6 | 1.6 | 0.00 | 0.03 | 0.03 | 87 | 1011.6 |
| 20260509135647 | 15 | 217 | 0.0 | 1.6 | 0.00 | 0.03 | 0.03 | 89 | 1011.8 |
| 20260509135146 | 15 | 218 | 0.0 | 3.2 | 0.00 | 0.03 | 0.03 | 89 | 1011.4 |
| 20260509134642 | 15 | 218 | 1.6 | 1.6 | 0.00 | 0.03 | 0.03 | 90 | 1011.4 |
| 20260509134139 | 15 | 222 | 1.6 | 3.2 | 0.00 | 0.03 | 0.03 | 90 | 1011.5 |
| 20260509133636 | 14 | 211 | 0.0 | 1.6 | 0.00 | 0.03 | 0.03 | 90 | 1011.6 |
| 20260509133133 | 13 | 217 | 3.2 | 3.2 | 0.00 | 0.03 | 0.03 | 89 | 1011.4 |
| 20260509132632 | 13 | 192 | 0.0 | 3.2 | 0.00 | 0.03 | 0.03 | 90 | 1011.4 |
| 20260509132130 | 14 | 207 | 1.6 | 1.6 | 0.00 | 0.03 | 0.03 | 88 | 1011.2 |
| 20260509131625 | 13 | 150 | 0.0 | 0.0 | 0.00 | 0.03 | 0.03 | 90 | 1011.1 |
| 20260509131123 | 13 | 143 | 0.0 | 0.0 | 0.00 | 0.03 | 0.03 | 91 | 1011.2 |
| 20260509130618 | 12 | 143 | 0.0 | 0.0 | 0.00 | 0.03 | 0.03 | 95 | 1011.1 |
| 20260509130115 | 12 | 143 | 0.0 | 0.0 | 0.00 | 0.03 | 0.03 | 98 | 1011.3 |
| 20260509125612 | 12 | 143 | 0.0 | 0.0 | 0.00 | 0.03 | 0.03 | 99 | 1011.3 |
| 20260509125108 | 11 | 143 | 0.0 | 0.0 | 0.00 | 0.03 | 0.03 | 99 | 1011.4 |
| 20260509124605 | 10 | 143 | 0.0 | 0.0 | 0.00 | 0.03 | 0.03 | 99 | 1011.1 |
| 20260509124102 | 11 | 144 | 0.0 | 0.0 | 0.00 | 0.03 | 0.03 | 99 | 1011.1 |
| 20260509123600 | 10 | 144 | 0.0 | 0.0 | 0.00 | 0.03 | 0.03 | 99 | 1011.0 |
| 20260509123056 | 10 | 116 | 0.0 | 0.0 | 0.00 | 0.03 | 0.03 | 99 | 1010.8 |
| 20260509122552 | 9 | 116 | 0.0 | 0.0 | 0.00 | 0.03 | 0.03 | 99 | 1011.0 |
| 20260509122050 | 8 | 116 | 0.0 | 0.0 | 0.00 | 0.03 | 0.03 | 99 | 1011.0 |
| 20260509121546 | 8 | 116 | 0.0 | 0.0 | 0.00 | 0.03 | 0.03 | 99 | 1010.7 |
| 20260509121048 | 8 | 116 | 0.0 | 0.0 | 0.00 | 0.03 | 0.03 | 99 | 1010.7 |
| 20260509120542 | 8 | 116 | 0.0 | 0.0 | 0.00 | 0.03 | 0.03 | 99 | 1010.8 |
| 20260509120040 | 8 | 116 | 0.0 | 0.0 | 0.00 | 0.03 | 0.03 | 99 | 1010.8 |
| 20260509115536 | 8 | 116 | 0.0 | 0.0 | 0.00 | 0.03 | 0.03 | 99 | 1010.8 |
| 20260509115034 | 8 | 116 | 0.0 | 0.0 | 0.00 | 0.03 | 0.03 | 99 | 1010.7 |
| 20260509114532 | 8 | 116 | 0.0 | 0.0 | 0.00 | 0.03 | 0.03 | 99 | 1010.7 |
| 20260509114031 | 8 | 116 | 0.0 | 0.0 | 0.00 | 0.03 | 0.03 | 99 | 1010.5 |
| 20260509113529 | 8 | 116 | 0.0 | 0.0 | 0.00 | 0.03 | 0.03 | 99 | 1010.7 |
| 20260509113027 | 8 | 116 | 0.0 | 0.0 | 0.00 | 0.03 | 0.03 | 99 | 1010.4 |
| 20260509112522 | 8 | 116 | 0.0 | 0.0 | 0.00 | 0.03 | 0.03 | 99 | 1010.6 |
| 20260509112019 | 8 | 116 | 0.0 | 0.0 | 0.00 | 0.03 | 0.03 | 99 | 1010.3 |
| 20260509111517 | 8 | 116 | 0.0 | 0.0 | 0.00 | 0.03 | 0.03 | 99 | 1010.3 |
| 20260509111014 | 8 | 116 | 0.0 | 0.0 | 0.00 | 0.03 | 0.03 | 99 | 1010.2 |
| 20260509110510 | 8 | 116 | 0.0 | 0.0 | 0.00 | 0.03 | 0.03 | 99 | 1010.5 |
| 20260509110008 | 8 | 116 | 0.0 | 0.0 | 0.00 | 0.03 | 0.03 | 99 | 1010.3 |
| 20260509105506 | 8 | 116 | 0.0 | 0.0 | 0.00 | 0.03 | 0.03 | 99 | 1010.5 |
| 20260509105003 | 8 | 116 | 0.0 | 0.0 | 0.00 | 0.03 | 0.03 | 99 | 1010.3 |
| 20260509104500 | 8 | 116 | 0.0 | 0.0 | 0.00 | 0.03 | 0.03 | 99 | 1010.2 |
| 20260509103957 | 8 | 116 | 0.0 | 0.0 | 0.00 | 0.03 | 0.03 | 99 | 1010.2 |
| 20260509103454 | 8 | 116 | 0.0 | 0.0 | 0.00 | 0.03 | 0.03 | 99 | 1010.1 |
| 20260509102952 | 8 | 116 | 0.0 | 0.0 | 0.00 | 0.03 | 0.03 | 99 | 1010.2 |
| 20260509102449 | 8 | 116 | 0.0 | 0.0 | 0.00 | 0.03 | 0.03 | 99 | 1010.1 |
| 20260509101946 | 8 | 116 | 0.0 | 0.0 | 0.00 | 0.03 | 0.03 | 99 | 1010.2 |
| 20260509101442 | 8 | 116 | 0.0 | 0.0 | 0.00 | 0.03 | 0.03 | 99 | 1010.1 |
| 20260509100940 | 8 | 116 | 0.0 | 0.0 | 0.00 | 0.03 | 0.03 | 99 | 1009.9 |
| 20260509100437 | 9 | 116 | 0.0 | 0.0 | 0.00 | 0.03 | 0.03 | 99 | 1010.0 |
| 20260509095933 | 9 | 117 | 0.0 | 0.0 | 0.00 | 0.03 | 0.03 | 99 | 1010.1 |
| 20260509095430 | 9 | 116 | 0.0 | 0.0 | 0.00 | 0.03 | 0.03 | 99 | 1009.9 |
| 20260509094927 | 9 | 116 | 0.0 | 0.0 | 0.00 | 0.03 | 0.03 | 99 | 1010.1 |
| 20260509094424 | 9 | 116 | 0.0 | 0.0 | 0.00 | 0.03 | 0.03 | 99 | 1010.0 |
| 20260509093922 | 9 | 116 | 0.0 | 0.0 | 0.00 | 0.03 | 0.03 | 99 | 1010.2 |
| 20260509093419 | 9 | 116 | 1.6 | 0.0 | 0.00 | 0.03 | 0.03 | 99 | 1010.4 |
| 20260509092917 | 9 | 116 | 0.0 | 1.6 | 0.00 | 0.03 | 0.03 | 99 | 1010.2 |
| 20260509092414 | 9 | 116 | 0.0 | 0.0 | 0.00 | 0.03 | 0.03 | 99 | 1010.2 |
| 20260509091913 | 9 | 116 | 0.0 | 0.0 | 0.00 | 0.03 | 0.03 | 99 | 1010.3 |
| 20260509091409 | 10 | 116 | 0.0 | 0.0 | 0.00 | 0.03 | 0.03 | 98 | 1010.3 |
| 20260509090907 | 10 | 116 | 0.0 | 0.0 | 0.00 | 0.03 | 0.03 | 99 | 1010.3 |
| 20260509090404 | 10 | 116 | 0.0 | 0.0 | 0.00 | 0.03 | 0.03 | 99 | 1010.2 |
| 20260509085901 | 10 | 116 | 0.0 | 0.0 | 0.00 | 0.03 | 0.03 | 98 | 1010.3 |
| 20260509085358 | 10 | 117 | 0.0 | 1.6 | 0.00 | 0.03 | 0.03 | 98 | 1010.4 |
| 20260509084854 | 10 | 117 | 0.0 | 0.0 | 0.00 | 0.03 | 0.03 | 98 | 1010.3 |
| 20260509084351 | 10 | 117 | 0.0 | 0.0 | 0.00 | 0.03 | 0.03 | 98 | 1010.4 |
| 20260509083849 | 10 | 117 | 0.0 | 1.6 | 0.00 | 0.03 | 0.03 | 98 | 1010.5 |
| 20260509083346 | 10 | 116 | 0.0 | 0.0 | 0.00 | 0.03 | 0.03 | 98 | 1010.6 |
| 20260509082842 | 10 | 116 | 0.0 | 0.0 | 0.00 | 0.03 | 0.03 | 98 | 1010.5 |
| 20260509082339 | 10 | 116 | 0.0 | 0.0 | 0.00 | 0.03 | 0.03 | 98 | 1010.7 |
| 20260509081837 | 10 | 115 | 1.6 | 1.6 | 0.00 | 0.03 | 0.03 | 98 | 1010.5 |
| 20260509081333 | 10 | 116 | 0.0 | 0.0 | 0.00 | 0.03 | 0.03 | 98 | 1010.7 |
| 20260509080831 | 10 | 118 | 0.0 | 0.0 | 0.00 | 0.03 | 0.03 | 98 | 1010.7 |
| 20260509080329 | 10 | 118 | 0.0 | 0.0 | 0.18 | 0.03 | 0.03 | 98 | 1010.8 |
| 20260509075827 | 10 | 116 | 1.6 | 1.6 | 0.18 | 0.03 | 0.03 | 98 | 1010.8 |
| 20260509075324 | 10 | 152 | 0.0 | 0.0 | 0.00 | 0.00 | 0.00 | 98 | 1010.7 |
| 20260509074821 | 10 | 152 | 0.0 | 0.0 | 0.00 | 0.00 | 0.00 | 98 | 1010.8 |
| 20260509074319 | 10 | 153 | 0.0 | 0.0 | 0.00 | 0.00 | 0.00 | 98 | 1010.6 |
| 20260509073815 | 10 | 152 | 0.0 | 0.0 | 0.00 | 0.00 | 0.00 | 98 | 1010.7 |
| 20260509073311 | 10 | 152 | 0.0 | 0.0 | 0.00 | 0.00 | 0.00 | 98 | 1010.8 |
| 20260509072808 | 10 | 152 | 0.0 | 0.0 | 0.00 | 0.00 | 0.00 | 98 | 1010.9 |
| 20260509072306 | 10 | 153 | 0.0 | 0.0 | 0.00 | 0.00 | 0.00 | 98 | 1010.8 |
| 20260509071801 | 10 | 153 | 0.0 | 0.0 | 0.00 | 0.00 | 0.00 | 98 | 1010.7 |
| 20260509071258 | 10 | 152 | 0.0 | 0.0 | 0.00 | 0.00 | 0.00 | 98 | 1010.7 |
| 20260509070755 | 10 | 152 | 0.0 | 0.0 | 0.00 | 0.00 | 0.00 | 98 | 1010.6 |
| 20260509070252 | 11 | 153 | 0.0 | 0.0 | 0.00 | 0.00 | 0.00 | 98 | 1010.6 |
| 20260509065748 | 11 | 153 | 0.0 | 0.0 | 0.00 | 0.00 | 0.00 | 98 | 1010.6 |
| 20260509065244 | 11 | 153 | 0.0 | 0.0 | 0.00 | 0.00 | 0.00 | 98 | 1010.4 |
| 20260509064741 | 11 | 152 | 0.0 | 0.0 | 0.00 | 0.00 | 0.00 | 98 | 1010.4 |
| 20260509064238 | 11 | 152 | 0.0 | 0.0 | 0.00 | 0.00 | 0.00 | 98 | 1010.5 |
| 20260509063736 | 11 | 154 | 0.0 | 0.0 | 0.00 | 0.00 | 0.00 | 98 | 1010.5 |
| 20260509063232 | 11 | 152 | 0.0 | 0.0 | 0.00 | 0.00 | 0.00 | 98 | 1010.6 |
| 20260509062729 | 11 | 152 | 1.6 | 1.6 | 0.00 | 0.00 | 0.00 | 98 | 1010.4 |
| 20260509062226 | 11 | 153 | 1.6 | 1.6 | 0.00 | 0.00 | 0.00 | 98 | 1010.7 |
| 20260509061723 | 11 | 153 | 0.0 | 0.0 | 0.00 | 0.00 | 0.00 | 98 | 1010.4 |